• In Netherlands
  • List of Countries
  • For 7 days
  • Water Temperature
  • Satellite Maps
  • Weather Map
  • Weather Widgets
  • user-avatar
    Login

    Hourly Weather Brussels

    Today, 28 June, Wednesday

    Time Temperature Precipitation Wind Pressure Humidity
    00:00 +18°C° 0 mm 2 mps 746 mmHg 96%
    01:00 +18°C° 0.1 mm 3 mps 745 mmHg 96%
    02:00 +18°C° 0.1 mm 3 mps 745 mmHg 96%
    03:00 +18°C° 0.1 mm 3 mps 744 mmHg 96%
    04:00 +18°C° 0.2 mm 3 mps 744 mmHg 95%
    05:00 +19°C° 0.2 mm 4 mps 744 mmHg 95%
    06:00 +19°C° 0 mm 4 mps 744 mmHg 93%
    07:00 +19°C° 0.7 mm 4 mps 744 mmHg 92%
    08:00 +19°C° 0.7 mm 4 mps 744 mmHg 91%
    09:00 +19°C° 0.7 mm 5 mps 744 mmHg 90%
    10:00 +19°C° 0.7 mm 5 mps 744 mmHg 89%
    11:00 +19°C° 0.7 mm 5 mps 744 mmHg 89%
    12:00 +19°C° 0.7 mm 5 mps 744 mmHg 88%
    13:00 +20°C° 0.2 mm 5 mps 744 mmHg 84%
    14:00 +20°C° 0.2 mm 5 mps 744 mmHg 81%
    15:00 +21°C° 0.2 mm 5 mps 744 mmHg 78%
    16:00 +21°C° 0.1 mm 4 mps 744 mmHg 78%
    17:00 +21°C° 0.1 mm 4 mps 744 mmHg 78%
    18:00 +21°C° 0.1 mm 3 mps 743 mmHg 79%
    19:00 +19°C° 0.2 mm 3 mps 744 mmHg 84%
    20:00 +18°C° 0.2 mm 3 mps 744 mmHg 89%
    21:00 +17°C° 0.2 mm 2 mps 744 mmHg 94%
    22:00 +16°C° 0.2 mm 2 mps 744 mmHg 95%
    23:00 +16°C° 0.2 mm 3 mps 744 mmHg 96%

    Tomorrow, 29 June, Thursday

    Time Temperature Precipitation Wind Pressure Humidity
    00:00 +16°C° 0.2 mm 3 mps 744 mmHg 96%
    01:00 +16°C° 0 mm 3 mps 743 mmHg 97%
    02:00 +14°C° 0 mm 3 mps 743 mmHg 97%
    03:00 +14°C° 0 mm 3 mps 743 mmHg 98%
    04:00 +14°C° 0 mm 3 mps 743 mmHg 96%
    05:00 +16°C° 0 mm 3 mps 743 mmHg 94%
    06:00 +16°C° 0 mm 3 mps 743 mmHg 93%
    07:00 +17°C° 0 mm 3 mps 743 mmHg 87%
    08:00 +18°C° 0 mm 4 mps 744 mmHg 81%
    09:00 +19°C° 0 mm 4 mps 744 mmHg 76%
    10:00 +20°C° 0.1 mm 4 mps 744 mmHg 73%
    11:00 +20°C° 0.1 mm 4 mps 744 mmHg 71%
    12:00 +21°C° 0.1 mm 5 mps 744 mmHg 68%
    13:00 +21°C° 0.2 mm 5 mps 744 mmHg 67%
    14:00 +21°C° 0.2 mm 5 mps 744 mmHg 67%
    15:00 +21°C° 0.2 mm 5 mps 744 mmHg 66%
    16:00 +21°C° 0.2 mm 4 mps 744 mmHg 70%
    17:00 +20°C° 0.2 mm 4 mps 745 mmHg 73%
    18:00 +20°C° 0.2 mm 3 mps 745 mmHg 76%
    19:00 +18°C° 0 mm 3 mps 745 mmHg 81%
    20:00 +17°C° 0 mm 3 mps 745 mmHg 86%
    21:00 +14°C° 0 mm 3 mps 746 mmHg 91%
    22:00 +14°C° 0 mm 3 mps 746 mmHg 92%
    23:00 +13°C° 0 mm 3 mps 746 mmHg 94%

    Day after tomorrow, 30 June, Friday

    Time Temperature Precipitation Wind Pressure Humidity
    00:00 +13°C° 0 mm 3 mps 746 mmHg 95%
    01:00 +13°C° 0 mm 3 mps 746 mmHg 95%
    02:00 +12°C° 0 mm 3 mps 746 mmHg 96%
    03:00 +12°C° 0 mm 3 mps 746 mmHg 96%
    04:00 +13°C° 0 mm 3 mps 746 mmHg 94%
    05:00 +14°C° 0 mm 4 mps 746 mmHg 91%
    06:00 +15°C° 0 mm 4 mps 747 mmHg 89%
    07:00 +15°C° 0.1 mm 4 mps 747 mmHg 88%
    08:00 +15°C° 0.1 mm 4 mps 747 mmHg 87%
    09:00 +15°C° 0.1 mm 5 mps 748 mmHg 86%
    10:00 +16°C° 0.1 mm 5 mps 748 mmHg 80%
    11:00 +17°C° 0.1 mm 5 mps 748 mmHg 74%
    12:00 +19°C° 0.1 mm 6 mps 749 mmHg 68%
    13:00 +19°C° 0.2 mm 6 mps 749 mmHg 69%
    14:00 +19°C° 0.2 mm 6 mps 749 mmHg 70%
    15:00 +19°C° 0.2 mm 5 mps 749 mmHg 70%
    16:00 +19°C° 0.2 mm 5 mps 749 mmHg 74%
    17:00 +17°C° 0.2 mm 5 mps 749 mmHg 77%
    18:00 +18°C° 0.2 mm 4 mps 749 mmHg 81%
    19:00 +17°C° 0.1 mm 4 mps 750 mmHg 85%
    20:00 +15°C° 0.1 mm 4 mps 750 mmHg 89%
    21:00 +14°C° 0.1 mm 3 mps 751 mmHg 93%
    22:00 +14°C° 0 mm 3 mps 751 mmHg 93%
    23:00 +13°C° 0 mm 3 mps 751 mmHg 94%

    1 July, Saturday

    Time Temperature Precipitation Wind Pressure Humidity
    00:00 +13°C° 0 mm 3 mps 751 mmHg 95%
    01:00 +13°C° 0.1 mm 4 mps 751 mmHg 95%
    02:00 +13°C° 0.1 mm 4 mps 751 mmHg 95%
    03:00 +12°C° 0.1 mm 4 mps 751 mmHg 95%
    04:00 +13°C° 0.6 mm 4 mps 752 mmHg 95%
    05:00 +13°C° 0.6 mm 4 mps 752 mmHg 95%
    06:00 +13°C° 0.6 mm 5 mps 752 mmHg 94%
    07:00 +14°C° 0.5 mm 5 mps 752 mmHg 93%
    08:00 +14°C° 0.5 mm 5 mps 753 mmHg 92%
    09:00 +14°C° 0.5 mm 6 mps 753 mmHg 91%
    10:00 +14°C° 0.8 mm 6 mps 754 mmHg 92%
    11:00 +14°C° 0.8 mm 6 mps 754 mmHg 92%
    12:00 +14°C° 0.8 mm 7 mps 755 mmHg 92%
    13:00 +14°C° 0.9 mm 6 mps 755 mmHg 92%
    14:00 +14°C° 0.9 mm 6 mps 755 mmHg 91%
    15:00 +14°C° 0.9 mm 6 mps 756 mmHg 91%
    16:00 +14°C° 0.5 mm 5 mps 756 mmHg 90%
    17:00 +14°C° 0.5 mm 5 mps 756 mmHg 89%
    18:00 +15°C° 0.5 mm 4 mps 757 mmHg 88%
    19:00 +14°C° 0 mm 4 mps 757 mmHg 89%
    20:00 +13°C° 0 mm 3 mps 758 mmHg 91%
    21:00 +13°C° 0 mm 3 mps 758 mmHg 92%
    22:00 +13°C° 0 mm 3 mps 758 mmHg 93%
    23:00 +12°C° 0 mm 3 mps 758 mmHg 94%

    2 July, Sunday

    Time Temperature Precipitation Wind Pressure Humidity
    00:00 +12°C° 0 mm 3 mps 758 mmHg 95%
    01:00 +12°C° 0 mm 3 mps 758 mmHg 95%
    02:00 +12°C° 0 mm 4 mps 758 mmHg 95%
    03:00 +12°C° 0 mm 4 mps 758 mmHg 95%
    04:00 +13°C° 0 mm 4 mps 758 mmHg 94%
    05:00 +14°C° 0 mm 5 mps 758 mmHg 93%
    06:00 +15°C° 0 mm 5 mps 758 mmHg 92%
    07:00 +15°C° 0.1 mm 5 mps 759 mmHg 92%
    08:00 +15°C° 0.1 mm 5 mps 759 mmHg 93%
    09:00 +15°C° 0.1 mm 5 mps 759 mmHg 93%
    10:00 +16°C° 0.2 mm 5 mps 759 mmHg 91%
    11:00 +17°C° 0.2 mm 5 mps 759 mmHg 89%
    12:00 +17°C° 0.2 mm 5 mps 760 mmHg 87%
    13:00 +17°C° 0.2 mm 5 mps 760 mmHg 84%
    14:00 +19°C° 0.2 mm 5 mps 760 mmHg 81%
    15:00 +19°C° 0.2 mm 6 mps 761 mmHg 79%
    16:00 +17°C° 0 mm 5 mps 761 mmHg 77%
    17:00 +18°C° 0 mm 4 mps 761 mmHg 76%
    18:00 +18°C° 0 mm 4 mps 762 mmHg 74%
    19:00 +14°C° 0 mm 3 mps 762 mmHg 80%
    20:00 +13°C° 0 mm 2 mps 763 mmHg 85%
    21:00 +11°C° 0 mm 1 mps 763 mmHg 90%
    22:00 +11°C° 0 mm 1 mps 763 mmHg 90%
    23:00 +11°C° 0 mm 1 mps 763 mmHg 90%

    3 July, Monday

    Time Temperature Precipitation Wind Pressure Humidity
    00:00 +11°C° 0 mm 1 mps 763 mmHg 90%
    01:00 +10°C° 0 mm 2 mps 763 mmHg 91%
    02:00 +10°C° 0 mm 2 mps 763 mmHg 91%
    03:00 +10°C° 0 mm 2 mps 763 mmHg 91%
    04:00 +12°C° 0 mm 3 mps 763 mmHg 89%
    05:00 +13°C° 0 mm 3 mps 763 mmHg 87%
    06:00 +14°C° 0 mm 3 mps 763 mmHg 85%
    07:00 +16°C° 0 mm 3 mps 763 mmHg 80%
    08:00 +18°C° 0 mm 3 mps 763 mmHg 75%
    09:00 +19°C° 0 mm 3 mps 763 mmHg 70%
    10:00 +20°C° 0.1 mm 4 mps 763 mmHg 68%
    11:00 +21°C° 0.1 mm 4 mps 763 mmHg 67%
    12:00 +22°C° 0.1 mm 5 mps 762 mmHg 65%
    13:00 +22°C° 0.2 mm 5 mps 762 mmHg 64%
    14:00 +22°C° 0.2 mm 5 mps 762 mmHg 63%
    15:00 +22°C° 0.2 mm 5 mps 762 mmHg 61%
    16:00 +22°C° 0 mm 4 mps 762 mmHg 64%
    17:00 +21°C° 0 mm 4 mps 762 mmHg 67%
    18:00 +20°C° 0 mm 3 mps 762 mmHg 69%
    19:00 +18°C° 0 mm 2 mps 762 mmHg 76%
    20:00 +16°C° 0 mm 2 mps 762 mmHg 82%
    21:00 +13°C° 0 mm 1 mps 763 mmHg 89%
    22:00 +13°C° 0 mm 1 mps 763 mmHg 88%
    23:00 +13°C° 0 mm 2 mps 763 mmHg 88%
    Show more